Overview Statistics Trail Chart Weather Telemetry Raw packets
 

This is the latest recevied weather packets stored in our database for station/object SV7GBF-2. If no packets are shown the sender has not sent any weather packets the latest 10 day(s).

<< 31 32 33 34 35 36 37 >>
Time Temp. Humidity Pressure Rain* Wind** Luminosity Snow
1788075243 25.56° C 50% 1017 hPa - - - -
1788074644 25.56° C 52% 1017 hPa - - - -
1788074044 25.56° C 52% 1017 hPa - - - -
1788072842 25° C 54% 1016 hPa - - - -
1788072243 25° C 56% 1016 hPa - - - -
1788071043 25° C 61% 1016 hPa - - - -
1788070443 25° C 69% 1016 hPa - - - -
1788069843 25° C 69% 1016 hPa - - - -
1788069243 24.44° C 74% 1016 hPa - - - -
1788068643 24.44° C 76% 1016 hPa - - - -
1788068043 24.44° C 77% 1016 hPa - - - -
1788067444 23.89° C 77% 1016 hPa - - - -
1788066843 23.89° C 77% 1016 hPa - - - -
1788066243 23.33° C 77% 1016 hPa - - - -
1788065654 23.33° C 77% 1016 hPa - - - -
1788064444 23.33° C 77% 1016 hPa - - - -
1788063843 23.33° C 77% 1016 hPa - - - -
1788063244 23.33° C 78% 1016 hPa - - - -
1788044043 24.44° C 44% 1016 hPa - - - -
1788043444 25° C 38% 1016 hPa - - - -
1788042843 25.56° C 35% 1017 hPa - - - -
1788042244 25.56° C 34% 1017 hPa - - - -
1788041645 25.56° C 34% 1017 hPa - - - -
1788040444 25° C 30% 1018 hPa - - - -
1788039845 24.44° C 31% 1018 hPa - - - -

* Rain since midnight (hover to see other rain measurements)
** Current wind speed in m/s (hover to see current wind gust speed)